Regional Weather Roundup
Issued by NWS

Home | Current Version | Previous Version | Graphics & Text | Print | Product List | Glossary On
Versions: 1 2 3 4 5 6 7 8 9 10 11 12 13 14 15 16 17 18 19 20 21 22 23 24 25 26 27 28 29 30 31 32 33 34 35 36 37 38 39 40 41 42 43 44 45 46 47 48 49 50
000
ASUS43 KBIS 300759
RWRND

NORTH DAKOTA REGIONAL WEATHER ROUNDUP
NATIONAL WEATHER SERVICE BISMARCK ND
300 AM CDT WED JUL 30 2014

NOTE: "FAIR" INDICATES FEW OR NO CLOUDS BELOW 12,000 FEET WITH NO
SIGNIFICANT WEATHER AND/OR OBSTRUCTIONS TO VISIBILITY.


NDZ001>003-009>011-017-300900-
NORTHWEST NORTH DAKOTA

CITY           SKY/WX    TMP DP  RH WIND       PRES   REMARKS
WILLISTON      CLEAR     60  56  86 NE5       30.18S
MINOT          PTCLDY    61  58  90 SW3       30.16S
$$

NDZ018>021-031>035-040>046-300900-
SOUTHWEST NORTH DAKOTA

CITY           SKY/WX    TMP DP  RH WIND       PRES   REMARKS
BISMARCK       CLEAR     58  31  35 NE3       30.17S
GARRISON         N/A     57  56  96 CALM      30.17S
HETTINGER ARPT CLEAR     56  53  90 E7        30.16F
$$

NDZ004>008-012>016-024-026-027-054-300900-
NORTHEAST NORTH DAKOTA

CITY           SKY/WX    TMP DP  RH WIND       PRES   REMARKS
GRAND FORKS    CLEAR     56  54  93 W6        30.11R
DEVILS LAKE    CLEAR     57  52  82 CALM      30.13S
$$

NDZ022-023-025-028>030-036>039-047>053-300900-
SOUTHEAST NORTH DAKOTA

CITY           SKY/WX    TMP DP  RH WIND       PRES   REMARKS
FARGO          CLEAR     57  54  89 W3        30.11S
$$



USA.gov is the U.S. government's official web portal to all federal, state and local government web resources and services.